Вернуться в каталог

STARLINK-11255

АктивенСвязьVLEO
NORAD 60730·PAYLOAD·🇺🇸 United States

Запущен Aug 28, 2024 с Cape Canaveral Space Force Station

Loading…

Ближайшие Пролёты (ближайшие 24 часа)

TLE

СвежийSource: CelesTrak SupGP

Эпоха: Sep 14, 2026, 20:56 UTC

1 60730C 24152L   26257.87270833  .00035804  00000+0  29500-3 0  2575
2 60730  53.1573 263.3985 0001318  95.5712 199.3183 15.69686055    16

Отслеживайте STARLINK-11255 в реальном времени с AllMySat

Download on the App Store